UAE9CL OMDB-EDDM

Flight info

Callsign UAE9CL
Flight time N/A
Altitude 34000
Route RIDAP M557 TUMAK L602 GADSI M860 SEPTU DCT VUSEB M860 NINVA UM860 NAREN/N0485F360 UM860 ODALI UL852 NEGEM DCT BULEN DCT DIRER DCT TISAK DCT BABIT DCT GOTAR DCT AMADI Q113 NAPSA NAPSA1B
Aircraft B77W/H-SDE1E2E3FGHIJ2J3J4J5M1RWXY/LB1D1

Departure

Time 2026-05-05 21:09
Airport Dubai International Airport (OMDB)

Arrival

Time N/A
Airport Munich Airport (EDDM)
Time Latitude Longitude Altitude Speed Heading
2026-05-05 20:45 25.24306 55.37446 27 ft 0 kts 211°
2026-05-05 20:54 25.24319 55.37455 26 ft 4 kts 211°
2026-05-05 20:54 25.24343 55.37471 25 ft 4 kts 211°
2026-05-05 20:54 25.24374 55.37490 24 ft 4 kts 181°
2026-05-05 20:55 25.24396 55.37481 25 ft 4 kts 130°
2026-05-05 20:55 25.24390 55.37493 24 ft 6 kts 124°
2026-05-05 20:55 25.24368 55.37531 26 ft 6 kts 121°
2026-05-05 20:55 25.24364 55.37540 27 ft 0 kts 121°
2026-05-05 20:58 25.24353 55.37559 27 ft 9 kts 121°
2026-05-05 20:58 25.24320 55.37620 27 ft 9 kts 121°
2026-05-05 20:59 25.24286 55.37682 27 ft 9 kts 121°
2026-05-05 20:59 25.24255 55.37742 27 ft 8 kts 112°
2026-05-05 20:59 25.24278 55.37784 27 ft 7 kts 33°
2026-05-05 20:59 25.24319 55.37813 27 ft 7 kts 33°
2026-05-05 21:00 25.24325 55.37817 27 ft 0 kts 33°
2026-05-05 21:01 25.24326 55.37818 27 ft 2 kts 33°
2026-05-05 21:01 25.24365 55.37846 27 ft 8 kts 33°
2026-05-05 21:01 25.24410 55.37879 27 ft 8 kts 36°
2026-05-05 21:02 25.24454 55.37914 27 ft 8 kts 36°
2026-05-05 21:02 25.24498 55.37949 27 ft 8 kts 35°
2026-05-05 21:02 25.24541 55.37982 27 ft 8 kts 34°
2026-05-05 21:02 25.24587 55.38017 27 ft 8 kts 34°
2026-05-05 21:03 25.24631 55.38047 27 ft 4 kts 31°
2026-05-05 21:03 25.24634 55.38050 27 ft 0 kts 31°
2026-05-05 21:06 25.24664 55.38069 27 ft 7 kts 31°
2026-05-05 21:07 25.24705 55.38096 27 ft 7 kts 31°
2026-05-05 21:07 25.24743 55.38116 27 ft 6 kts
2026-05-05 21:07 25.24771 55.38086 27 ft 6 kts 304°
2026-05-05 21:07 25.24779 55.38074 27 ft 0 kts 304°
2026-05-05 21:08 25.24790 55.38053 27 ft 15 kts 301°
2026-05-05 21:08 25.24967 55.37735 27 ft 84 kts 301°
2026-05-05 21:08 25.25382 55.36985 27 ft 144 kts 302°
2026-05-05 21:08 25.25978 55.35881 59 ft 184 kts 298°
2026-05-05 21:09 25.26630 55.34707 579 ft 182 kts 300°
2026-05-05 21:09 25.27339 55.33440 755 ft 206 kts 300°
2026-05-05 21:09 25.28127 55.32025 999 ft 226 kts 301°
2026-05-05 21:09 25.28969 55.30519 1254 ft 245 kts 302°
2026-05-05 21:10 25.29921 55.28850 1545 ft 264 kts 304°
2026-05-05 21:10 25.30948 55.27137 2028 ft 273 kts 296°
2026-05-05 21:10 25.31484 55.25114 2599 ft 276 kts 280°
2026-05-05 21:10 25.31820 55.23007 3236 ft 279 kts 281°
2026-05-05 21:11 25.32171 55.20894 3955 ft 280 kts 282°
2026-05-05 21:11 25.32536 55.18782 4668 ft 280 kts 282°
2026-05-05 21:11 25.32913 55.16664 5328 ft 282 kts 282°
2026-05-05 21:11 25.33301 55.14526 5949 ft 286 kts 283°
2026-05-05 21:12 25.33699 55.12364 6550 ft 289 kts 283°
2026-05-05 21:12 25.34106 55.10179 7163 ft 291 kts 283°
2026-05-05 21:12 25.34513 55.08007 7765 ft 294 kts 283°
2026-05-05 21:12 25.34931 55.05781 8367 ft 297 kts 283°
2026-05-05 21:13 25.35355 55.03531 8980 ft 300 kts 283°
2026-05-05 21:13 25.35784 55.01257 9599 ft 303 kts 283°
2026-05-05 21:13 25.36205 54.99018 10181 ft 306 kts 283°
2026-05-05 21:13 25.36655 54.96638 10351 ft 327 kts 283°
2026-05-05 21:14 25.37135 54.94102 10531 ft 348 kts 283°
2026-05-05 21:14 25.37643 54.91409 10679 ft 368 kts 283°
2026-05-05 21:14 25.38166 54.88630 11065 ft 379 kts 282°
2026-05-05 21:14 25.38707 54.85749 11622 ft 387 kts 282°
2026-05-05 21:15 25.39253 54.82835 12458 ft 386 kts 282°
2026-05-05 21:15 25.39799 54.79919 13272 ft 389 kts 282°
2026-05-05 21:15 25.40348 54.76985 13980 ft 391 kts 282°
2026-05-05 21:15 25.40902 54.74021 14636 ft 395 kts 282°
2026-05-05 21:16 25.41459 54.71042 15319 ft 397 kts 282°
2026-05-05 21:16 25.42018 54.68046 15999 ft 400 kts 281°
2026-05-05 21:16 25.42582 54.65023 16666 ft 403 kts 281°
2026-05-05 21:16 25.43161 54.61979 17342 ft 406 kts 283°
2026-05-05 21:17 25.43934 54.59010 17992 ft 409 kts 287°
2026-05-05 21:17 25.44829 54.56010 18568 ft 412 kts 288°
2026-05-05 21:17 25.45737 54.52987 19121 ft 416 kts 288°
2026-05-05 21:17 25.46648 54.49935 19691 ft 419 kts 287°
2026-05-05 21:18 25.47560 54.46858 20230 ft 423 kts 287°
2026-05-05 21:18 25.48475 54.43749 20762 ft 427 kts 287°
2026-05-05 21:18 25.49395 54.40611 21326 ft 430 kts 287°
2026-05-05 21:18 25.50320 54.37449 21870 ft 433 kts 287°
2026-05-05 21:19 25.51236 54.34315 22432 ft 436 kts 287°
2026-05-05 21:19 25.52172 54.31111 22965 ft 439 kts 287°
2026-05-05 21:19 25.53115 54.27880 23455 ft 443 kts 287°
2026-05-05 21:19 25.54064 54.24628 23866 ft 445 kts 287°
2026-05-05 21:20 25.55023 54.21363 24319 ft 447 kts 287°
2026-05-05 21:20 25.55992 54.18090 24783 ft 448 kts 287°
2026-05-05 21:20 25.56965 54.14809 25268 ft 448 kts 287°
2026-05-05 21:20 25.57937 54.11526 25737 ft 449 kts 287°
2026-05-05 21:21 25.58909 54.08233 26179 ft 451 kts 287°
2026-05-05 21:21 25.59864 54.04969 26592 ft 453 kts 286°
2026-05-05 21:21 25.60817 54.01635 27000 ft 455 kts 286°
2026-05-05 21:21 25.61744 53.98353 27390 ft 456 kts 285°
2026-05-05 21:22 25.62691 53.94989 27796 ft 458 kts 285°
2026-05-05 21:22 25.63641 53.91622 28274 ft 457 kts 285°
2026-05-05 21:22 25.64592 53.88259 28706 ft 458 kts 285°
2026-05-05 21:22 25.65544 53.84889 29051 ft 460 kts 285°
2026-05-05 21:23 25.66502 53.81499 29342 ft 462 kts 285°
2026-05-05 21:23 25.67465 53.78091 29641 ft 464 kts 285°
2026-05-05 21:23 25.68414 53.74730 30020 ft 463 kts 285°
2026-05-05 21:23 25.69370 53.71338 30478 ft 459 kts 285°
2026-05-05 21:24 25.70317 53.67972 30945 ft 455 kts 285°
2026-05-05 21:24 25.71255 53.64632 31366 ft 453 kts 285°
2026-05-05 21:24 25.72190 53.61300 31754 ft 452 kts 285°
2026-05-05 21:24 25.73121 53.57975 32116 ft 450 kts 285°
2026-05-05 21:25 25.74048 53.54667 32499 ft 449 kts 284°
2026-05-05 21:25 25.74970 53.51373 32897 ft 446 kts 284°
2026-05-05 21:25 25.75892 53.48089 33336 ft 443 kts 284°
2026-05-05 21:25 25.76798 53.44888 33755 ft 441 kts 284°
2026-05-05 21:26 25.78648 53.38341 33789 ft 446 kts 284°
2026-05-05 21:26 25.80488 53.31820 33779 ft 440 kts 284°
2026-05-05 21:27 25.82305 53.25358 33787 ft 438 kts 284°
2026-05-05 21:27 25.84143 53.18915 33785 ft 438 kts 287°
2026-05-05 21:28 25.86548 53.12720 33795 ft 441 kts 291°
2026-05-05 21:28 25.89104 53.06513 33786 ft 443 kts 291°
2026-05-05 21:29 25.91646 53.00277 33792 ft 444 kts 290°
2026-05-05 21:29 25.94143 52.94115 33791 ft 445 kts 290°
2026-05-05 21:30 25.96680 52.87839 33787 ft 446 kts 290°
2026-05-05 21:30 25.99219 52.81552 33789 ft 446 kts 290°
2026-05-05 21:31 26.01755 52.75265 33779 ft 446 kts 290°
2026-05-05 21:31 26.04460 52.69053 33797 ft 447 kts 293°
2026-05-05 21:32 26.07276 52.62950 33789 ft 446 kts 292°
2026-05-05 21:32 26.10059 52.56797 33794 ft 445 kts 292°
2026-05-05 21:33 26.12825 52.50647 33793 ft 444 kts 292°
2026-05-05 21:33 26.15608 52.44515 33792 ft 444 kts 292°
2026-05-05 21:34 26.18367 52.38423 33804 ft 444 kts 292°
2026-05-05 21:34 26.21139 52.32290 33794 ft 443 kts 292°
2026-05-05 21:35 26.23868 52.26131 33793 ft 443 kts 291°
2026-05-05 21:35 26.26528 52.19948 33795 ft 443 kts 291°
2026-05-05 21:36 26.29198 52.13756 33798 ft 443 kts 291°
2026-05-05 21:36 26.31857 52.07603 33810 ft 444 kts 291°
2026-05-05 21:37 26.34516 52.01396 33799 ft 444 kts 291°
2026-05-05 21:37 26.37141 51.95235 33796 ft 443 kts 290°
2026-05-05 21:38 26.39366 51.88867 33802 ft 440 kts 286°
2026-05-05 21:38 26.41466 51.82506 33794 ft 440 kts 286°
2026-05-05 21:39 26.43630 51.76114 33798 ft 440 kts 287°
2026-05-05 21:39 26.45792 51.69718 33805 ft 440 kts 286°
2026-05-05 21:40 26.47960 51.63328 33799 ft 440 kts 286°
2026-05-05 21:40 26.50084 51.56971 33797 ft 440 kts 286°
2026-05-05 21:41 26.52201 51.50570 33799 ft 439 kts 286°
2026-05-05 21:41 26.54317 51.44175 33798 ft 439 kts 286°
2026-05-05 21:42 26.56434 51.37776 33796 ft 439 kts 286°
2026-05-05 21:42 26.58531 51.31430 33805 ft 438 kts 285°
2026-05-05 21:43 26.60640 51.25046 33797 ft 438 kts 285°
2026-05-05 21:43 26.62747 51.18674 33798 ft 437 kts 285°
2026-05-05 21:44 26.64846 51.12310 33799 ft 436 kts 285°
2026-05-05 21:44 26.66939 51.05953 33797 ft 436 kts 285°
2026-05-05 21:45 26.68994 50.99693 33820 ft 436 kts 285°
2026-05-05 21:45 26.71043 50.93321 33804 ft 435 kts 285°
2026-05-05 21:46 26.73080 50.86954 33800 ft 434 kts 285°
2026-05-05 21:46 26.75113 50.80602 33797 ft 433 kts 285°
2026-05-05 21:47 26.77129 50.74301 33791 ft 433 kts 285°
2026-05-05 21:47 26.79344 50.68011 33800 ft 438 kts 291°
2026-05-05 21:48 26.82426 50.62095 33802 ft 443 kts 298°
2026-05-05 21:48 26.86243 50.56649 33797 ft 445 kts 303°
2026-05-05 21:49 26.90190 50.51324 33801 ft 443 kts 302°
2026-05-05 21:49 26.94221 50.46148 33802 ft 445 kts 306°
2026-05-05 21:50 26.98485 50.41126 33820 ft 444 kts 306°
2026-05-05 21:50 27.02729 50.36097 33809 ft 444 kts 306°
2026-05-05 21:51 27.06951 50.31044 33810 ft 443 kts 306°
2026-05-05 21:51 27.11150 50.25976 33808 ft 444 kts 306°
2026-05-05 21:52 27.17693 50.18625 33812 ft 453 kts 313°
2026-05-05 21:53 27.22800 50.14402 33813 ft 457 kts 316°
2026-05-05 21:53 27.27939 50.10194 33810 ft 457 kts 315°
2026-05-05 21:54 27.33016 50.05983 33811 ft 457 kts 315°
2026-05-05 21:54 27.38107 50.01714 33810 ft 456 kts 314°
2026-05-05 21:55 27.43045 49.97377 33812 ft 455 kts 313°
2026-05-05 21:55 27.48020 49.92969 33810 ft 455 kts 314°
2026-05-05 21:56 27.53009 49.88568 33818 ft 456 kts 313°
2026-05-05 21:56 27.57979 49.84192 33823 ft 456 kts 313°
2026-05-05 21:57 27.62979 49.79787 33815 ft 456 kts 313°
2026-05-05 21:57 27.67977 49.75376 33825 ft 456 kts 313°
2026-05-05 21:58 27.72976 49.70958 33829 ft 456 kts 313°
2026-05-05 21:58 27.77974 49.66538 33823 ft 456 kts 313°
2026-05-05 21:59 27.82923 49.62128 33819 ft 456 kts 313°
2026-05-05 21:59 27.87896 49.57675 33816 ft 456 kts 313°
2026-05-05 22:00 27.92864 49.53224 33819 ft 456 kts 313°
2026-05-05 22:00 27.97834 49.48769 33819 ft 456 kts 312°
2026-05-05 22:01 28.02766 49.44343 33835 ft 456 kts 312°
2026-05-05 22:01 28.07712 49.39857 33825 ft 456 kts 311°
2026-05-05 22:02 28.12648 49.35350 33815 ft 455 kts 311°
2026-05-05 22:02 28.17577 49.30849 33819 ft 455 kts 311°
2026-05-05 22:03 28.22511 49.26342 33828 ft 455 kts 311°
2026-05-05 22:03 28.27408 49.21862 33813 ft 455 kts 311°
2026-05-05 22:04 28.32317 49.17335 33816 ft 454 kts 311°
2026-05-05 22:04 28.37212 49.12810 33824 ft 454 kts 311°
2026-05-05 22:05 28.42286 49.08470 33821 ft 460 kts 316°
2026-05-05 22:05 28.47577 49.04462 33814 ft 460 kts 316°
2026-05-05 22:06 28.52903 49.00425 33833 ft 460 kts 316°
2026-05-05 22:06 28.58160 48.96406 33815 ft 460 kts 316°
2026-05-05 22:07 28.63468 48.92331 33813 ft 460 kts 316°
2026-05-05 22:07 28.68774 48.88253 33814 ft 460 kts 316°
2026-05-05 22:08 28.74042 48.84199 33817 ft 460 kts 316°
2026-05-05 22:08 28.79353 48.80109 33812 ft 461 kts 316°
2026-05-05 22:09 28.84668 48.76023 33809 ft 461 kts 316°
2026-05-05 22:09 28.89994 48.71940 33814 ft 462 kts 316°
2026-05-05 22:10 28.95288 48.67874 33812 ft 462 kts 316°
2026-05-05 22:10 29.00617 48.63774 33805 ft 462 kts 316°
2026-05-05 22:11 29.05947 48.59668 33809 ft 462 kts 316°
2026-05-05 22:11 29.11275 48.55557 33808 ft 462 kts 316°
2026-05-05 22:12 29.16564 48.51471 33806 ft 462 kts 316°
2026-05-05 22:12 29.21885 48.47355 33824 ft 462 kts 316°
2026-05-05 22:13 29.27208 48.43232 33813 ft 462 kts 316°
2026-05-05 22:13 29.32532 48.39103 33809 ft 462 kts 316°
2026-05-05 22:14 29.37814 48.35001 33807 ft 461 kts 316°
2026-05-05 22:14 29.43129 48.30875 33804 ft 462 kts 317°
2026-05-05 22:15 29.48697 48.27078 33809 ft 467 kts 321°
2026-05-05 22:15 29.54359 48.23405 33807 ft 467 kts 321°
2026-05-05 22:16 29.59972 48.19742 33810 ft 468 kts 320°
2026-05-05 22:16 29.65622 48.16025 33803 ft 468 kts 320°
2026-05-05 22:17 29.71269 48.12298 33794 ft 468 kts 320°
2026-05-05 22:17 29.76919 48.08564 33798 ft 468 kts 320°
2026-05-05 22:18 29.82531 48.04852 33794 ft 468 kts 320°
2026-05-05 22:18 29.88182 48.01109 33779 ft 468 kts 320°
2026-05-05 22:19 29.93777 47.97398 33779 ft 468 kts 320°
2026-05-05 22:19 29.99361 47.93587 33777 ft 461 kts 315°
2026-05-05 22:20 30.04207 47.89011 33771 ft 448 kts 307°
2026-05-05 22:20 30.08343 47.83745 33783 ft 441 kts 301°
2026-05-05 22:21 30.12329 47.78362 33784 ft 442 kts 301°
2026-05-05 22:21 30.16335 47.72971 33776 ft 443 kts 302°
2026-05-05 22:22 30.20331 47.67618 33790 ft 443 kts 302°
2026-05-05 22:22 30.24366 47.62219 33785 ft 443 kts 302°
2026-05-05 22:23 30.28396 47.56819 33786 ft 443 kts 302°
2026-05-05 22:23 30.32423 47.51414 33791 ft 443 kts 302°
2026-05-05 22:24 30.36422 47.46039 33798 ft 444 kts 302°
2026-05-05 22:24 30.40446 47.40622 33791 ft 444 kts 302°
2026-05-05 22:25 30.44471 47.35197 33791 ft 444 kts 302°
2026-05-05 22:25 30.48492 47.29769 33805 ft 444 kts 302°
2026-05-05 22:26 30.52490 47.24366 33793 ft 444 kts 302°
2026-05-05 22:26 30.56604 47.18989 33796 ft 450 kts 306°
2026-05-05 22:27 30.61410 47.14213 33803 ft 458 kts 312°
2026-05-05 22:27 30.66405 47.09613 33799 ft 458 kts 312°
2026-05-05 22:28 30.71635 47.05288 33805 ft 469 kts 320°
2026-05-05 22:28 30.77537 47.01949 33825 ft 477 kts 325°
2026-05-05 22:29 30.83514 46.98750 33795 ft 477 kts 325°
2026-05-05 22:29 30.89531 46.95497 33795 ft 477 kts 325°
2026-05-05 22:30 30.95534 46.92217 33812 ft 477 kts 325°
2026-05-05 22:30 31.01523 46.88929 33788 ft 476 kts 325°
2026-05-05 22:31 31.07463 46.85663 33794 ft 475 kts 325°
2026-05-05 22:31 31.13439 46.82373 33796 ft 474 kts 325°
2026-05-05 22:32 31.19403 46.79086 33800 ft 474 kts 325°
2026-05-05 22:32 31.25357 46.75801 33805 ft 473 kts 325°
2026-05-05 22:33 31.31266 46.72535 33817 ft 473 kts 325°
2026-05-05 22:33 31.37210 46.69246 33815 ft 472 kts 325°
2026-05-05 22:34 31.43142 46.65958 33844 ft 472 kts 325°
2026-05-05 22:34 31.49075 46.62666 33827 ft 472 kts 325°
2026-05-05 22:35 31.55006 46.59370 33826 ft 471 kts 325°
2026-05-05 22:35 31.60886 46.56098 33848 ft 471 kts 325°
2026-05-05 22:36 31.66814 46.52793 33844 ft 471 kts 324°
2026-05-05 22:36 31.72735 46.49489 33843 ft 471 kts 324°
2026-05-05 22:37 31.78655 46.46180 33853 ft 472 kts 324°
2026-05-05 22:37 31.84539 46.42887 33855 ft 471 kts 324°
2026-05-05 22:38 31.90457 46.39570 33864 ft 471 kts 324°
2026-05-05 22:38 31.96375 46.36249 33883 ft 471 kts 324°
2026-05-05 22:39 32.02291 46.32923 33880 ft 471 kts 324°
2026-05-05 22:39 32.08172 46.29613 33903 ft 471 kts 324°
2026-05-05 22:40 32.14090 46.26277 33883 ft 471 kts 324°
2026-05-05 22:40 32.19998 46.22943 33886 ft 470 kts 324°
2026-05-05 22:41 32.25900 46.19606 33890 ft 470 kts 324°
2026-05-05 22:41 32.31756 46.16291 33904 ft 470 kts 324°
2026-05-05 22:42 32.37648 46.12950 33896 ft 469 kts 324°
2026-05-05 22:42 32.43534 46.09608 33908 ft 470 kts 324°
2026-05-05 22:43 32.49424 46.06258 33901 ft 469 kts 324°
2026-05-05 22:43 32.55269 46.02930 33933 ft 469 kts 324°
2026-05-05 22:44 32.61095 45.99607 33909 ft 470 kts 324°
2026-05-05 22:44 32.66984 45.96244 33918 ft 470 kts 323°
2026-05-05 22:45 32.72876 45.92874 33920 ft 470 kts 323°
2026-05-05 22:45 32.78773 45.89496 33908 ft 471 kts 323°
2026-05-05 22:46 32.84637 45.86132 33926 ft 471 kts 323°
2026-05-05 22:46 32.90536 45.82744 33922 ft 471 kts 323°
2026-05-05 22:47 32.96442 45.79345 33925 ft 472 kts 323°
2026-05-05 22:47 33.02347 45.75943 33943 ft 472 kts 323°
2026-05-05 22:48 33.08228 45.72548 33930 ft 473 kts 323°
2026-05-05 22:48 33.14157 45.69121 33926 ft 474 kts 323°
2026-05-05 22:49 33.20095 45.65685 33933 ft 474 kts 323°
2026-05-05 22:49 33.26034 45.62243 33936 ft 474 kts 323°
2026-05-05 22:50 33.31932 45.58819 33966 ft 475 kts 322°
2026-05-05 22:50 33.37877 45.55362 33942 ft 475 kts 322°
2026-05-05 22:51 33.43830 45.51895 33941 ft 476 kts 322°
2026-05-05 22:51 33.49788 45.48420 33939 ft 477 kts 322°
2026-05-05 22:52 33.55750 45.44937 33935 ft 477 kts 322°
2026-05-05 22:52 33.61679 45.41469 33943 ft 477 kts 322°
2026-05-05 22:53 33.67653 45.37969 33937 ft 478 kts 322°
2026-05-05 22:53 33.73631 45.34460 33928 ft 479 kts 322°
2026-05-05 22:54 33.79615 45.30944 33930 ft 479 kts 322°
2026-05-05 22:54 33.85563 45.27442 33929 ft 479 kts 322°
2026-05-05 22:55 33.91551 45.23912 33949 ft 479 kts 322°
2026-05-05 22:55 33.97541 45.20374 33932 ft 480 kts 322°
2026-05-05 22:56 34.03525 45.16836 33924 ft 480 kts 322°
2026-05-05 22:56 34.09481 45.13307 33934 ft 481 kts 322°
2026-05-05 22:57 34.15482 45.09746 33933 ft 481 kts 322°
2026-05-05 22:57 34.21481 45.06182 33948 ft 481 kts 321°
2026-05-05 22:58 34.27490 45.02605 33933 ft 481 kts 321°
2026-05-05 22:58 34.33441 44.99057 33945 ft 482 kts 321°
2026-05-05 22:59 34.39415 44.95489 33950 ft 483 kts 321°
2026-05-05 22:59 34.45453 44.91876 33945 ft 485 kts 321°
2026-05-05 23:00 34.54535 44.86433 33937 ft 486 kts 321°
2026-05-05 23:00 34.60552 44.82822 33939 ft 486 kts 321°
2026-05-05 23:01 34.66608 44.79179 33937 ft 487 kts 321°
2026-05-05 23:01 34.72684 44.75518 33935 ft 487 kts 321°
2026-05-05 23:02 34.78756 44.71854 33934 ft 487 kts 321°
2026-05-05 23:02 34.84833 44.68181 33930 ft 488 kts 321°
2026-05-05 23:03 34.90868 44.64527 33938 ft 488 kts 321°
2026-05-05 23:03 34.96950 44.60837 33963 ft 488 kts 321°
2026-05-05 23:04 35.03037 44.57138 33939 ft 490 kts 321°
2026-05-05 23:04 35.09141 44.53424 33929 ft 491 kts 321°
2026-05-05 23:05 35.15217 44.49720 33947 ft 492 kts 322°
2026-05-05 23:05 35.21344 44.45979 33914 ft 493 kts 322°
2026-05-05 23:06 35.27478 44.42228 33901 ft 493 kts 322°
2026-05-05 23:06 35.33620 44.38465 33899 ft 494 kts 322°
2026-05-05 23:07 35.39725 44.34719 33885 ft 494 kts 322°
2026-05-05 23:07 35.45870 44.30941 33885 ft 494 kts 322°
2026-05-05 23:08 35.52021 44.27154 33883 ft 494 kts 322°
2026-05-05 23:08 35.58159 44.23368 33891 ft 494 kts 322°
2026-05-05 23:09 35.64254 44.19601 33918 ft 494 kts 322°
2026-05-05 23:09 35.70404 44.15793 33898 ft 494 kts 322°
2026-05-05 23:10 35.76543 44.11987 33935 ft 494 kts 323°
2026-05-05 23:10 35.82686 44.08171 33903 ft 494 kts 323°
2026-05-05 23:11 35.88788 44.04374 33905 ft 495 kts 323°
2026-05-05 23:11 35.94935 44.00541 33910 ft 495 kts 323°
2026-05-05 23:12 36.01027 43.96738 33904 ft 495 kts 323°
2026-05-05 23:12 36.07174 43.92893 33930 ft 495 kts 324°
2026-05-05 23:13 36.13276 43.89069 33899 ft 495 kts 324°
2026-05-05 23:13 36.19406 43.85220 33914 ft 494 kts 324°
2026-05-05 23:14 36.25526 43.81372 33909 ft 493 kts 324°
2026-05-05 23:14 36.31773 43.77792 33919 ft 497 kts 329°
2026-05-05 23:15 36.38128 43.74548 33927 ft 498 kts 329°
2026-05-05 23:15 36.44529 43.71280 33921 ft 497 kts 329°
2026-05-05 23:16 36.50910 43.67975 33939 ft 497 kts 329°
2026-05-05 23:16 36.57288 43.64649 33934 ft 497 kts 329°
2026-05-05 23:17 36.63669 43.61318 33930 ft 497 kts 329°
2026-05-05 23:17 36.70052 43.57982 33930 ft 498 kts 329°
2026-05-05 23:18 36.76385 43.54652 33944 ft 497 kts 328°
2026-05-05 23:18 36.82699 43.51150 33990 ft 495 kts 327°
2026-05-05 23:19 36.88992 43.47595 33948 ft 496 kts 327°
2026-05-05 23:19 36.95273 43.44061 33986 ft 495 kts 327°
2026-05-05 23:20 37.01550 43.40542 33963 ft 501 kts 327°
2026-05-05 23:20 37.07926 43.36969 33971 ft 503 kts 327°
2026-05-05 23:21 37.14309 43.33384 33999 ft 503 kts 327°
2026-05-05 23:21 37.20696 43.29785 33974 ft 503 kts 327°
2026-05-05 23:22 37.27029 43.26211 33990 ft 502 kts 327°
2026-05-05 23:22 37.33095 43.22138 33988 ft 483 kts 311°
2026-05-05 23:23 37.35510 43.19297 34006 ft 470 kts 303°
2026-05-05 23:23 37.37501 43.16106 33979 ft 458 kts 292°
2026-05-05 23:23 37.38510 43.13816 33993 ft 447 kts 288°
2026-05-05 23:23 37.39905 43.10319 33988 ft 449 kts 288°
2026-05-05 23:24 37.43300 43.02187 34000 ft 454 kts 289°
2026-05-05 23:24 37.46245 42.95252 33966 ft 454 kts 289°
2026-05-05 23:25 37.48714 42.89433 33988 ft 454 kts 289°
2026-05-05 23:25 37.51686 42.82404 33996 ft 456 kts 289°
2026-05-05 23:26 37.55148 42.74192 33980 ft 456 kts 289°
2026-05-05 23:26 37.58119 42.67125 33967 ft 456 kts 289°
2026-05-05 23:27 37.60592 42.61254 33985 ft 457 kts 289°
2026-05-05 23:27 37.63578 42.54183 33981 ft 456 kts 289°
2026-05-05 23:28 37.67044 42.45961 33954 ft 456 kts 289°
2026-05-05 23:28 37.70011 42.38893 33989 ft 456 kts 289°
2026-05-05 23:29 37.72474 42.33002 33980 ft 456 kts 289°
2026-05-05 23:29 37.75439 42.25925 33972 ft 456 kts 289°
2026-05-05 23:30 37.78399 42.18836 34007 ft 456 kts 289°
2026-05-05 23:30 37.81358 42.11717 33967 ft 457 kts 289°
2026-05-05 23:31 37.84293 42.04648 33965 ft 457 kts 289°
2026-05-05 23:31 37.87221 41.97589 33967 ft 458 kts 289°
2026-05-05 23:32 37.90225 41.90455 33963 ft 463 kts 292°
2026-05-05 23:32 37.94050 41.83787 33960 ft 475 kts 302°
2026-05-05 23:33 37.98422 41.77570 34010 ft 476 kts 303°
2026-05-05 23:33 38.02844 41.71307 33973 ft 477 kts 303°
2026-05-05 23:34 38.07243 41.65004 33957 ft 477 kts 303°
2026-05-05 23:34 38.11622 41.58682 33980 ft 476 kts 303°
2026-05-05 23:35 38.15992 41.52355 33951 ft 476 kts 303°
2026-05-05 23:35 38.20327 41.46069 33960 ft 476 kts 303°
2026-05-05 23:36 38.24686 41.39734 33961 ft 477 kts 303°
2026-05-05 23:36 38.29053 41.33378 33958 ft 478 kts 303°
2026-05-05 23:37 38.33421 41.27008 33950 ft 477 kts 303°
2026-05-05 23:37 38.37752 41.20680 33961 ft 477 kts 304°
2026-05-05 23:38 38.42108 41.14301 33955 ft 477 kts 304°
2026-05-05 23:38 38.46465 41.07909 33950 ft 477 kts 303°
2026-05-05 23:39 38.50749 41.01437 33968 ft 479 kts 303°
2026-05-05 23:39 38.52840 40.98222 34142 ft 481 kts 303°
2026-05-05 23:39 38.54981 40.94934 34464 ft 481 kts 303°
2026-05-05 23:40 38.57087 40.91708 34822 ft 479 kts 303°
2026-05-05 23:40 38.59221 40.88444 35156 ft 478 kts 304°
2026-05-05 23:40 38.61354 40.85180 35448 ft 478 kts 304°
2026-05-05 23:40 38.63488 40.81910 35704 ft 478 kts 304°
2026-05-05 23:41 38.65631 40.78652 35868 ft 481 kts 305°
2026-05-05 23:41 38.67801 40.75369 35904 ft 484 kts 305°
2026-05-05 23:41 38.72155 40.68805 35967 ft 482 kts 305°
2026-05-05 23:42 38.76442 40.62324 35965 ft 479 kts 305°
2026-05-05 23:42 38.80741 40.55791 35960 ft 479 kts 305°
2026-05-05 23:43 38.85031 40.49257 35985 ft 479 kts 305°
2026-05-05 23:43 38.89323 40.42706 35980 ft 480 kts 306°
2026-05-05 23:44 38.93613 40.36146 35964 ft 480 kts 305°
2026-05-05 23:44 38.97865 40.29631 35997 ft 479 kts 306°
2026-05-05 23:45 39.02142 40.23068 35966 ft 478 kts 306°
2026-05-05 23:45 39.06408 40.16503 35959 ft 478 kts 306°
2026-05-05 23:46 39.10674 40.09925 35971 ft 479 kts 306°
2026-05-05 23:46 39.14919 40.03366 35972 ft 480 kts 305°
2026-05-05 23:47 39.19152 39.96815 35963 ft 480 kts 305°
2026-05-05 23:47 39.23413 39.90211 35976 ft 478 kts 306°
2026-05-05 23:48 39.27666 39.83609 35972 ft 479 kts 305°
2026-05-05 23:48 39.31887 39.77040 35965 ft 478 kts 305°
2026-05-05 23:49 39.36119 39.70440 35983 ft 476 kts 305°
2026-05-05 23:49 39.40338 39.63846 35972 ft 476 kts 305°
2026-05-05 23:50 39.44553 39.57242 35963 ft 476 kts 305°
2026-05-05 23:50 39.48771 39.50621 35964 ft 477 kts 305°
2026-05-05 23:51 39.52957 39.44016 35950 ft 478 kts 305°
2026-05-05 23:51 39.57119 39.37311 35931 ft 477 kts 304°
2026-05-05 23:52 39.61267 39.30598 35954 ft 477 kts 305°
2026-05-05 23:52 39.65422 39.23876 35941 ft 478 kts 305°
2026-05-05 23:53 39.69558 39.17179 35916 ft 478 kts 305°
2026-05-05 23:53 39.73712 39.10447 35937 ft 479 kts 305°
2026-05-05 23:54 39.77924 39.03730 35903 ft 480 kts 306°
2026-05-05 23:54 39.82108 38.97078 35927 ft 481 kts 306°
2026-05-05 23:55 39.86308 38.90373 35907 ft 482 kts 306°
2026-05-05 23:55 39.90532 38.83603 35931 ft 481 kts 305°
2026-05-05 23:56 39.94751 38.76821 35917 ft 482 kts 305°
2026-05-05 23:56 39.98970 38.70026 35916 ft 482 kts 306°
2026-05-05 23:57 40.03152 38.63277 35919 ft 481 kts 305°
2026-05-05 23:57 40.07356 38.56478 35926 ft 481 kts 305°
2026-05-05 23:58 40.11561 38.49661 35926 ft 483 kts 306°
2026-05-05 23:58 40.15773 38.42818 35922 ft 483 kts 306°
2026-05-05 23:59 40.19955 38.36009 35922 ft 484 kts 306°
2026-05-05 23:59 40.24164 38.29140 35933 ft 484 kts 306°
2026-05-06 00:00 40.28378 38.22251 35920 ft 485 kts 306°
2026-05-06 00:00 40.32333 38.15138 35929 ft 482 kts 297°
2026-05-06 00:01 40.35238 38.07280 35932 ft 477 kts 288°
2026-05-06 00:01 40.37579 37.99307 35943 ft 477 kts 288°
2026-05-06 00:02 40.39967 37.91183 35944 ft 477 kts 288°
2026-05-06 00:02 40.42389 37.83069 35943 ft 478 kts 288°
2026-05-06 00:03 40.44815 37.74950 35948 ft 478 kts 289°
2026-05-06 00:03 40.47215 37.66885 35956 ft 478 kts 289°
2026-05-06 00:04 40.49627 37.58755 35961 ft 478 kts 289°
2026-05-06 00:04 40.52037 37.50610 35956 ft 478 kts 289°
2026-05-06 00:05 40.55631 37.38418 35964 ft 479 kts 289°
2026-05-06 00:06 40.58031 37.30243 35967 ft 479 kts 289°
2026-05-06 00:06 40.60426 37.22055 35982 ft 480 kts 289°
2026-05-06 00:07 40.62818 37.13859 35980 ft 480 kts 289°
2026-05-06 00:07 40.65192 37.05695 35984 ft 481 kts 289°
2026-05-06 00:08 40.67553 36.97550 35992 ft 481 kts 289°
2026-05-06 00:08 40.69935 36.89309 35990 ft 481 kts 289°
2026-05-06 00:09 40.72310 36.81064 35988 ft 481 kts 289°
2026-05-06 00:09 40.74679 36.72816 35994 ft 481 kts 289°
2026-05-06 00:10 40.77027 36.64618 36003 ft 481 kts 290°
2026-05-06 00:10 40.79394 36.56363 35996 ft 481 kts 290°
2026-05-06 00:11 40.81758 36.48108 35997 ft 481 kts 290°
2026-05-06 00:11 40.84115 36.39844 36006 ft 481 kts 290°
2026-05-06 00:12 40.86452 36.31622 35983 ft 482 kts 290°
2026-05-06 00:12 40.88798 36.23340 35976 ft 481 kts 290°
2026-05-06 00:13 40.91136 36.15057 35983 ft 481 kts 290°
2026-05-06 00:13 40.93467 36.06777 35970 ft 481 kts 291°
2026-05-06 00:14 40.95725 35.98603 35967 ft 481 kts 290°
2026-05-06 00:14 40.98001 35.90260 35960 ft 483 kts 290°
2026-05-06 00:15 41.00291 35.81913 35958 ft 483 kts 291°
2026-05-06 00:15 41.02612 35.73565 35957 ft 484 kts 291°
2026-05-06 00:16 41.04919 35.65250 35963 ft 484 kts 291°
2026-05-06 00:16 41.07233 35.56864 35963 ft 485 kts 291°
2026-05-06 00:17 41.09539 35.48465 35955 ft 484 kts 291°
2026-05-06 00:17 41.11835 35.40076 35958 ft 484 kts 291°
2026-05-06 00:18 41.14125 35.31685 35956 ft 484 kts 291°
2026-05-06 00:18 41.16391 35.23348 35954 ft 483 kts 291°
2026-05-06 00:19 41.18663 35.14967 35956 ft 482 kts 291°
2026-05-06 00:19 41.20926 35.06590 35957 ft 482 kts 291°
2026-05-06 00:20 41.23161 34.98286 35950 ft 482 kts 290°
2026-05-06 00:20 41.25393 34.89966 35953 ft 481 kts 291°
2026-05-06 00:21 41.27636 34.81581 35954 ft 481 kts 291°
2026-05-06 00:21 41.29872 34.73195 35964 ft 482 kts 291°
2026-05-06 00:22 41.32105 34.64794 35956 ft 482 kts 291°
2026-05-06 00:22 41.34335 34.56374 35958 ft 483 kts 291°
2026-05-06 00:23 41.36544 34.48003 35960 ft 483 kts 291°
2026-05-06 00:23 41.38765 34.39557 35968 ft 483 kts 291°
2026-05-06 00:24 41.40977 34.31109 35961 ft 483 kts 291°
2026-05-06 00:24 41.43153 34.22650 35971 ft 482 kts 290°
2026-05-06 00:25 41.45307 34.14258 35971 ft 481 kts 290°
2026-05-06 00:25 41.47475 34.05831 35975 ft 480 kts 290°
2026-05-06 00:26 41.49619 33.97499 35977 ft 479 kts 291°
2026-05-06 00:26 41.51774 33.89096 35980 ft 478 kts 291°
2026-05-06 00:27 41.53902 33.80763 36002 ft 477 kts 291°
2026-05-06 00:27 41.56037 33.72368 35980 ft 478 kts 292°
2026-05-06 00:28 41.58167 33.63971 35995 ft 478 kts 292°
2026-05-06 00:28 41.60286 33.55557 35995 ft 478 kts 291°
2026-05-06 00:29 41.62371 33.47118 36002 ft 478 kts 291°
2026-05-06 00:29 41.64484 33.38768 36006 ft 478 kts 292°
2026-05-06 00:30 41.66609 33.30345 36014 ft 478 kts 292°
2026-05-06 00:30 41.68722 33.21910 36003 ft 478 kts 292°
2026-05-06 00:31 41.70115 33.16319 36010 ft 478 kts 292°